Regional Weather Roundup
Issued by NWS

Home | Current Version | Previous Version | Graphics & Text | Print | Product List | Glossary Off
Versions: 1 2 3 4 5 6 7 8 9 10 11 12 13 14 15 16 17 18 19 20 21 22 23 24 25 26 27 28 29 30 31 32 33 34 35 36 37 38 39 40 41 42 43 44 45 46 47 48 49 50

000
ASUS45 KBOU 041607
RWRCO

WEATHER ROUNDUP FOR COLORADO
NATIONAL WEATHER SERVICE DENVER/BOULDER CO
1000 AM MDT TUE AUG 04 2015

NOTE: "FAIR" INDICATES FEW OR NO CLOUDS BELOW 12000 FEET WITH NO
SIGNIFICANT WEATHER AND/OR OBSTRUCTIONS TO VISIBILITY.

COZ001>005-013-030-031-041700-
...NORTHWEST COLORADO...

CITY           SKY/WX    TMP DP  RH WIND       PRES   REMARKS
CRAIG          NOT AVBL
HAYDEN         SUNNY     64  46  52 N5        30.25F
MEEKER         SUNNY     67  47  48 S3        30.25F
MOUNT WERNER   NOT AVBL
STEAMBOAT SPGS   N/A     56  53  89 CALM      30.28R
WALDEN         CLOUDY    57  41  54 SW16G24   30.29S
$$

COZ006>008-011-041700-
...WEST CENTRAL VALLEYS...

CITY           SKY/WX    TMP DP  RH WIND       PRES   REMARKS
GRAND JUNCTION SUNNY     71  50  47 VRB6      30.17F
MONTROSE       SUNNY     72  48  42 CALM      30.24F
EAGLE          MOSUNNY   68  45  42 W10       30.26F
RIFLE          SUNNY     69  51  52 CALM      30.21F
DELTA          RAIN      73  49  43 CALM      30.21F
NUCLA          SUNNY     68  46  45 CALM      30.29S
$$

COZ017>023-064>068-041700-
...SOUTHWEST COLORADO...

CITY           SKY/WX    TMP DP  RH WIND       PRES   REMARKS
DURANGO        SUNNY     72  43  35 SW6       30.28F
CORTEZ         SUNNY     72  50  45 S3        30.24S
PAGOSA SPRINGS SUNNY     68  37  31 CALM      30.36S
TELLURIDE      SUNNY     65  45  49 CALM      30.47F
WOLF CREEK PAS NOT AVBL
$$

COZ009-010-012-014-032>034-037-058>063-041700-
...CENTRAL COLORADO...

CITY           SKY/WX    TMP DP  RH WIND       PRES   REMARKS
ASPEN          SUNNY     65  44  46 N6        30.32F
BUENA VISTA    SUNNY     69  40  35 W9        30.29F
COPPER MTN     SUNNY     54  34  47 W32G44    30.55S
BERTHOUD PASS  FAIR      43  32  65 NW36G53   30.56R
COTTONWOOD PAS SUNNY     63  37  39 NW5G17    30.42S
GUNNISON       SUNNY     57  45  62 CALM      30.39F
KREMMLING      MOSUNNY   70  36  28 W12       30.28F
LEADVILLE      MOSUNNY   60  36  40 N15G24    30.43R
MONARCH PASS   SUNNY     43  37  81 W30       30.66R
SALIDA         MOSUNNY   74  40  29 SW15G24   30.34F
SUNLIGHT       SUNNY     55  46  71 CALM      30.55R
WILKERSON PASS NOT AVBL
$$

COZ069>075-041700-
...SAN LUIS VALLEY/SANGRE DE CRISTO MOUNTAINS...

CITY           SKY/WX    TMP DP  RH WIND       PRES   REMARKS
ALAMOSA        SUNNY     64  47  53 SE3       30.32F
LA VETA PASS   SUNNY     59  41  51 MISG      30.45F
SAGUACHE       SUNNY     64  46  52 SE7       30.35S
$$

COZ035-036-038>040-041700-
...NORTHERN COLORADO FRONT RANGE...

CITY           SKY/WX    TMP DP  RH WIND       PRES   REMARKS
DENVER INTL AP PTSUNNY   76  46  34 N3        30.11R
DMNS CITY PARK   N/A     74  49  41 N3G9      30.10F
AURORA         PTSUNNY   76  45  32 NW9       30.13R
FRONT RANGE AP PTSUNNY   75  45  33 CALM      30.12S
ERIE MUNI ARPT CLOUDY    73  49  42 CALM      30.09F
BOULDER MUN AP CLOUDY    68  54  60 S5        30.09F
CENTENNIAL     PTSUNNY   77  42  28 N6        30.13R
BROOMFIELD     PTSUNNY   72  50  46 N3        30.13R
FORT COLLINS   PTSUNNY   73  55  53 S12       30.08S
LONGMONT       PTSUNNY   76  55  47 E9        30.10F
$$

COZ041-046-047-076>085-087-088-041700-
...PIKES PEAK/PALMER DIVIDE AND SOUTHERN FOOTHILLS...

CITY           SKY/WX    TMP DP  RH WIND       PRES   REMARKS
COLO. SPRINGS  MOSUNNY   80  39  23 NW13G23   30.15S
A. F. ACADEMY  SUNNY     76  40  27 NW14G20   30.17S
ELLICOTT       MOSUNNY  N/A N/A N/A N13G22    30.13S
FALCON         MOSUNNY   74  40  28 W15G21    30.21R
FORT CARSON    MOSUNNY   73  50  43 CALM      30.12S
LIMON          SUNNY     79  46  31 N16       30.09S
MONUMENT HILL  NOT AVBL
TRINIDAD       SUNNY     80  53  39 W15       30.12F
$$

COZ042>045-048>051-090-091-041700-
...NORTHEAST COLORADO...

CITY           SKY/WX    TMP DP  RH WIND       PRES   REMARKS
GREELEY ARPT   MOSUNNY   79  54  41 CALM      30.06F
AKRON          MOSUNNY   78  53  41 NE9       30.04F
BURLINGTON     SUNNY     76  58  53 W10       30.01F
WRAY           MOSUNNY   80  60  50 E5        29.98F
STERLING       MOSUNNY   75  55  50 CALM      29.99F
HOLYOKE        MOSUNNY   77  64  65 E6        29.99F
FORT MORGAN    MOSUNNY   80  47  31 N10       30.04F
$$

COZ086-089-092>099-041700-
...SOUTHEAST COLORADO...

CITY           SKY/WX    TMP DP  RH WIND       PRES   REMARKS
PUEBLO         SUNNY     84  51  31 W14       30.03F
LA JUNTA       SUNNY     79  60  52 W10       30.01F
LAMAR          SUNNY     77  61  57 VRB3      29.98F
SPRINGFIELD      N/A     80  58  46 SW12      30.02F
$$



USA.gov is the U.S. government's official web portal to all federal, state and local government web resources and services.